Texarkana, AR

3:53 AM CDT on October 14, 2019 (GMT -0500)
Texarkana Regional-Webb

Weather History for KTXK - September, 2019

Change the Weather History Date:

Sunday, September 22, 2019

  Actual Average Record
Temperature  
Mean Temperature 82 °F 73 °F  
Max Temperature 90 °F 84 °F 99 °F (1937)
Min Temperature 73 °F 61 °F 42 °F (1983)
Degree Days  
Heating Degree Days 0 1  
Month to date heating degree days 0 1  
Since 1 July heating degree days 0 1  
Cooling Degree Days 17 8  
Month to date cooling degree days 401 251  
Year to date cooling degree days 2209 2039  
Growing Degree Days 31 (Base 50)    
Moisture  
Dew Point 70 °F    
Average Humidity 73    
Maximum Humidity 93    
Minimum Humidity 52    
Precipitation  
Precipitation 0.00 in 0.11 in 1.65 in (1957)
Month to date precipitation 0.92 2.48  
Year to date precipitation 42.53 33.90  
Snow  
Snow 0.00 in - - ()
Month to date snowfall 0.0  
Since 1 July snowfall 0.0  
Since 1 September snowfall 0.0  
Snow Depth 0.00 in    
Sea Level Pressure  
Sea Level Pressure 30.04 in    
Wind  
Wind Speed 9 mph (South)    
Max Wind Speed 15 mph    
Max Gust Speed 23 mph    
Visibility 10 miles    
Events      
T = Trace of Precipitation, MM = Missing Value Source: NWS Daily Summary

Daily Weather History Graph

Daily Weather History Graph

Search for Another Location

Airport or City:

Astronomy

Sep. 22, 2019 Rise Set
Actual Time 7:03 AM CDT 7:12 PM CDT
Civil Twilight 6:39 AM CDT 7:37 PM CDT
Nautical Twilight 6:10 AM CDT 8:06 PM CDT
Astronomical Twilight 5:40 AM CDT 8:35 PM CDT
Moon 12:11 AM CDT (9/22) 2:50 PM CDT (9/22)
Length of Visible Light 12h 58m
Length of Day
12h 08m
Last Quarter, 44% of the Moon is Illuminated
Sep 22
Last Quarter
Sep 28
New
Oct 5
First Quarter
Oct 13
Full
Oct 21
Last Quarter

Hourly Weather History & Observations

Time (CDT) Temp. Heat Index Dew Point Humidity Pressure Visibility Wind Dir Wind Speed Gust Speed Precip Events Conditions
12:53 AM 77.0 °F - 66.9 °F 71% 30.04 in 10.0 mi SSE 10.4 mph - N/A   Clear
1:53 AM 75.9 °F - 68.0 °F 76% 30.04 in 10.0 mi South 9.2 mph 18.4 mph N/A   Clear
2:53 AM 75.0 °F - 69.1 °F 82% 30.04 in 10.0 mi South 9.2 mph - N/A   Clear
3:53 AM 73.9 °F - 70.0 °F 87% 30.04 in 10.0 mi South 8.1 mph - N/A   Clear
4:53 AM 73.0 °F - 70.0 °F 90% 30.04 in 10.0 mi South 5.8 mph - N/A   Clear
5:53 AM 73.0 °F - 70.0 °F 90% 30.04 in 10.0 mi South 9.2 mph - N/A   Clear
6:53 AM 73.0 °F - 70.0 °F 90% 30.05 in 10.0 mi South 8.1 mph - N/A   Scattered Clouds
7:03 AM 73.0 °F - 71.1 °F 93% 30.07 in 10.0 mi South 6.9 mph - N/A   Mostly Cloudy
7:17 AM 73.0 °F - 71.1 °F 93% 30.08 in 10.0 mi South 8.1 mph - N/A   Overcast
7:25 AM 73.0 °F - 71.1 °F 93% 30.07 in 10.0 mi South 9.2 mph - N/A   Overcast
7:53 AM 73.0 °F - 71.1 °F 93% 30.07 in 10.0 mi South 8.1 mph - N/A   Overcast
8:30 AM 73.9 °F - 71.1 °F 91% 30.08 in 10.0 mi South 10.4 mph - N/A   Overcast
8:53 AM 75.0 °F - 71.1 °F 87% 30.07 in 10.0 mi South 10.4 mph - N/A   Overcast
9:21 AM 75.9 °F - 71.1 °F 85% 30.08 in 10.0 mi SSW 9.2 mph - N/A   Overcast
9:44 AM 75.9 °F - 71.1 °F 85% 30.09 in 10.0 mi SSW 9.2 mph - N/A   Overcast
9:53 AM 77.0 °F - 71.1 °F 82% 30.08 in 10.0 mi SSW 8.1 mph - N/A   Overcast
10:15 AM 79.0 °F - 71.1 °F 77% 30.09 in 10.0 mi SSW 9.2 mph - N/A   Overcast
10:53 AM 81.0 °F 84.9 °F 71.1 °F 72% 30.07 in 10.0 mi South 12.7 mph - N/A   Overcast
11:38 AM 82.9 °F 87.5 °F 71.1 °F 67% 30.07 in 10.0 mi South 11.5 mph - N/A   Scattered Clouds
11:53 AM 84.9 °F 90.7 °F 72.0 °F 65% 30.05 in 10.0 mi SSW 12.7 mph - N/A   Partly Cloudy
12:53 PM 87.1 °F 92.8 °F 71.1 °F 59% 30.03 in 10.0 mi SSW 13.8 mph 19.6 mph N/A   Clear
1:53 PM 89.1 °F 93.7 °F 69.1 °F 52% 30.01 in 10.0 mi South 13.8 mph - N/A   Scattered Clouds
2:53 PM 87.1 °F 91.3 °F 69.1 °F 55% 29.99 in 10.0 mi South 11.5 mph - N/A   Mostly Cloudy
3:53 PM 87.1 °F 91.3 °F 69.1 °F 55% 29.97 in 10.0 mi SSW 6.9 mph - N/A   Partly Cloudy
4:53 PM 89.1 °F 93.7 °F 69.1 °F 52% 29.97 in 10.0 mi SSW 6.9 mph - N/A   Clear
5:53 PM 88.0 °F 91.4 °F 68.0 °F 51% 29.96 in 10.0 mi South 8.1 mph - N/A   Clear
6:53 PM 84.9 °F 89.4 °F 70.0 °F 61% 29.97 in 10.0 mi South 4.6 mph - N/A   Clear
7:53 PM 82.0 °F 85.9 °F 70.0 °F 67% 29.99 in 10.0 mi South 5.8 mph - N/A   Clear
8:53 PM 81.0 °F 84.4 °F 70.0 °F 69% 29.99 in 10.0 mi South 6.9 mph - N/A   Clear
9:53 PM 81.0 °F 84.4 °F 70.0 °F 69% 29.99 in 10.0 mi South 10.4 mph - N/A   Clear
10:53 PM 79.0 °F - 71.1 °F 77% 30.01 in 10.0 mi South 8.1 mph - N/A   Clear
11:53 PM 77.0 °F - 71.1 °F 82% 30.01 in 10.0 mi SSW 8.1 mph - N/A   Clear